Change the Weather History Date:

Monday, June 25, 2012

  Actual Average Record
Temperature  
Mean Temperature 71 °F 73 °F  
Max Temperature 80 °F 83 °F 99 °F (1997)
Min Temperature 61 °F 63 °F 53 °F (1979)
Degree Days  
Heating Degree Days 0 0  
Month to date heating degree days 22 22  
Since 1 June heating degree days 22 22  
Since 1 July heating degree days 3676 5158  
Cooling Degree Days 6 8  
Month to date cooling degree days 142 145  
Year to date cooling degree days 298 202  
Since 1 June cooling degree days 142 145  
Growing Degree Days 22 (Base 50)    
Moisture  
Dew Point 60 °F    
Average Humidity 68    
Maximum Humidity 90    
Minimum Humidity 45    
Precipitation  
Precipitation 0.34 in 0.13 in 0.94 in (2014)
Month to date precipitation 2.66 3.75  
Year to date precipitation 16.54 21.27  
Sea Level Pressure  
Sea Level Pressure 29.73 in    
Wind  
Wind Speed 8 mph (North)    
Max Wind Speed 18 mph    
Max Gust Speed 28 mph    
Visibility 9 miles    
Events Fog , Rain    
T = Trace of Precipitation, MM = Missing Value Source: NWS Daily Summary

Daily Weather History Graph

Daily Weather History Graph

Search for Another Location

Airport or City:

Trip Planner

Search our weather history database for the weather conditions in past years. The results will help you decide how hot, cold, wet, or windy it might be!

Date:

Astronomy

Jun. 25, 2012 Rise Set
Actual Time 5:30 AM EDT 8:33 PM EDT
Civil Twilight 4:57 AM EDT 9:06 PM EDT
Nautical Twilight 4:15 AM EDT 9:48 PM EDT
Astronomical Twilight 3:26 AM EDT 10:37 PM EDT
Moon 11:39 AM EDT (6/25) 11:59 PM EDT (6/25)
Length of Visible Light 16h 08m
Length of Day
15h 02m
Waxing Crescent, 34% of the Moon is Illuminated
Jun 25
Waxing Crescent
Jun 26
First Quarter
Jul 3
Full
Jul 10
Last Quarter
Jul 19
New

Hourly Weather History & Observations

Time (EDT) Temp. Dew Point Humidity Pressure Visibility Wind Dir Wind Speed Gust Speed Precip Events Conditions
12:53 AM 72.0 °F 64.0 °F 76% 29.85 in 10.0 mi South 5.8 mph - N/A   Clear
1:53 AM 72.0 °F 64.0 °F 76% 29.82 in 10.0 mi Calm Calm - N/A   Partly Cloudy
2:53 AM 71.1 °F 64.9 °F 81% 29.79 in 10.0 mi SSW 4.6 mph - N/A   Clear
3:53 AM 71.1 °F 66.9 °F 87% 29.76 in 9.0 mi SSW 3.5 mph - N/A   Partly Cloudy
4:53 AM 70.0 °F 66.9 °F 90% 29.75 in 8.0 mi SSW 4.6 mph - N/A   Mostly Cloudy
5:53 AM 71.1 °F 66.9 °F 87% 29.75 in 6.0 mi SSW 6.9 mph - N/A   Clear
6:53 AM 71.1 °F 66.9 °F 87% 29.73 in 7.0 mi SSW 6.9 mph - N/A   Scattered Clouds
7:44 AM 69.8 °F 64.4 °F 83% 29.75 in 9.0 mi North 18.4 mph 27.6 mph N/A   Mostly Cloudy
7:51 AM 68.0 °F 62.6 °F 83% 29.76 in 4.0 mi North 11.5 mph 27.6 mph 0.05 in Rain Light Rain
7:53 AM 66.9 °F 63.0 °F 87% 29.75 in 1.8 mi NNW 9.2 mph 23.0 mph 0.13 in Rain Heavy Rain
8:01 AM 66.2 °F 64.4 °F 94% 29.75 in 0.5 mi North 11.5 mph - 0.21 in Fog , Rain Heavy Rain
8:08 AM 66.2 °F 62.6 °F 88% 29.74 in 2.5 mi North 11.5 mph - 0.21 in Rain Light Rain
8:15 AM 66.2 °F 62.6 °F 88% 29.75 in 10.0 mi North 10.4 mph - 0.21 in   Overcast
8:53 AM 66.9 °F 63.0 °F 87% 29.73 in 9.0 mi NNE 4.6 mph - 0.21 in   Scattered Clouds
9:53 AM 69.1 °F 62.1 °F 78% 29.72 in 10.0 mi Calm Calm - 0.00 in   Mostly Cloudy
10:53 AM 73.0 °F 64.0 °F 73% 29.70 in 10.0 mi Variable 4.6 mph - N/A   Partly Cloudy
11:53 AM 75.0 °F 63.0 °F 66% 29.69 in 10.0 mi North 6.9 mph - N/A   Mostly Cloudy
12:08 PM 75.2 °F 62.6 °F 65% 29.71 in 10.0 mi North 6.9 mph - N/A   Mostly Cloudy
12:16 PM 78.8 °F 62.6 °F 57% 29.71 in 10.0 mi North 11.5 mph 17.3 mph N/A   Mostly Cloudy
12:53 PM 75.9 °F 60.1 °F 58% 29.70 in 10.0 mi North 12.7 mph - N/A   Mostly Cloudy
1:53 PM 77.0 °F 62.1 °F 60% 29.68 in 10.0 mi North 11.5 mph 19.6 mph N/A   Mostly Cloudy
2:53 PM 78.1 °F 62.1 °F 58% 29.65 in 10.0 mi NNE 9.2 mph 21.9 mph N/A   Mostly Cloudy
3:53 PM 77.0 °F 60.1 °F 56% 29.64 in 10.0 mi NE 8.1 mph - N/A   Partly Cloudy
4:53 PM 79.0 °F 55.0 °F 44% 29.64 in 10.0 mi North 10.4 mph - N/A   Scattered Clouds
5:53 PM 75.9 °F 54.0 °F 46% 29.65 in 10.0 mi North 16.1 mph 23.0 mph N/A   Scattered Clouds
6:53 PM 73.9 °F 52.0 °F 46% 29.68 in 10.0 mi NNE 12.7 mph 20.7 mph N/A   Mostly Cloudy
7:53 PM 72.0 °F 52.0 °F 49% 29.70 in 10.0 mi North 11.5 mph - N/A   Mostly Cloudy
8:53 PM 69.1 °F 51.1 °F 53% 29.71 in 10.0 mi North 9.2 mph - N/A   Clear
9:53 PM 68.0 °F 48.0 °F 49% 29.73 in 10.0 mi North 9.2 mph - N/A   Mostly Cloudy
10:53 PM 66.0 °F 46.0 °F 48% 29.74 in 10.0 mi North 12.7 mph 19.6 mph N/A   Partly Cloudy
11:53 PM 63.0 °F 46.9 °F 56% 29.75 in 10.0 mi North 6.9 mph - N/A   Clear